When you browse on this site, cookies collect data to enhance your experience and personalize the content and advertising you see.
Visit our Privacy Policy to learn more. By continuing to use the site, you agree to this use of cookies and data.
  • In Latvia
  • List of Countries
  • For 7 days
  • Water Temperature
  • Satellite Maps
  • Weather Map
  • Weather Widgets
  • user-avatar
    Login

    Hourly Weather Popowice

    Today, 11 December, Tuesday

    Time Temperature Precipitation Wind Pressure Humidity
    00:00 0°C° 0 mm 4 mps 747 mmHg 84%
    01:00 +1°C° 0 mm 3 mps 747 mmHg 85%
    02:00 0°C° 0.1 mm 4 mps 747 mmHg 86%
    03:00 0°C° 0.1 mm 4 mps 747 mmHg 87%
    04:00 0°C° 0.1 mm 4 mps 747 mmHg 88%
    05:00 0°C° 0.3 mm 4 mps 747 mmHg 88%
    06:00 +1°C° 0.3 mm 3 mps 747 mmHg 89%
    07:00 +1°C° 0 mm 3 mps 747 mmHg 90%
    08:00 +1°C° 0.2 mm 3 mps 748 mmHg 90%
    09:00 +2°C° 0.2 mm 2 mps 748 mmHg 89%
    10:00 +3°C° 0.2 mm 2 mps 748 mmHg 89%
    11:00 +3°C° 0.1 mm 2 mps 749 mmHg 88%
    12:00 +3°C° 0.1 mm 2 mps 749 mmHg 87%
    13:00 +3°C° 0 mm 2 mps 750 mmHg 86%
    14:00 +3°C° 0.1 mm 2 mps 750 mmHg 88%
    15:00 +3°C° 0.1 mm 2 mps 751 mmHg 89%
    16:00 +2°C° 0.1 mm 2 mps 751 mmHg 90%
    17:00 +2°C° 0.1 mm 2 mps 752 mmHg 91%
    18:00 +2°C° 0.1 mm 2 mps 752 mmHg 92%
    19:00 +2°C° 0.1 mm 2 mps 753 mmHg 93%
    20:00 +2°C° 0 mm 2 mps 753 mmHg 93%
    21:00 +2°C° 0 mm 2 mps 753 mmHg 93%
    22:00 +2°C° 0 mm 2 mps 754 mmHg 93%
    23:00 +1°C° 0 mm 2 mps 754 mmHg 92%

    Tomorrow, 12 December, Wednesday

    Time Temperature Precipitation Wind Pressure Humidity
    00:00 0°C° 0 mm 3 mps 755 mmHg 90%
    01:00 0°C° 0 mm 3 mps 755 mmHg 89%
    02:00 0°C° 0 mm 3 mps 756 mmHg 88%
    03:00 0°C° 0 mm 3 mps 756 mmHg 87%
    04:00 -1°C° 0 mm 3 mps 756 mmHg 87%
    05:00 -1°C° 0 mm 3 mps 757 mmHg 87%
    06:00 -1°C° 0 mm 3 mps 757 mmHg 87%
    07:00 -1°C° 0 mm 3 mps 758 mmHg 87%
    08:00 -1°C° 0 mm 3 mps 758 mmHg 85%
    09:00 -1°C° 0 mm 3 mps 759 mmHg 82%
    10:00 -1°C° 0 mm 3 mps 759 mmHg 80%
    11:00 0°C° 0 mm 3 mps 759 mmHg 79%
    12:00 0°C° 0 mm 3 mps 760 mmHg 79%
    13:00 +1°C° 0 mm 3 mps 760 mmHg 78%
    14:00 +1°C° 0 mm 2 mps 760 mmHg 81%
    15:00 +1°C° 0 mm 2 mps 760 mmHg 85%
    16:00 -1°C° 0 mm 2 mps 760 mmHg 88%
    17:00 -1°C° 0 mm 2 mps 761 mmHg 90%
    18:00 -1°C° 0 mm 2 mps 761 mmHg 91%
    19:00 -1°C° 0 mm 2 mps 761 mmHg 92%
    20:00 -1°C° 0 mm 2 mps 761 mmHg 92%
    21:00 -1°C° 0 mm 2 mps 761 mmHg 92%
    22:00 -1°C° 0 mm 2 mps 761 mmHg 92%
    23:00 -1°C° 0 mm 2 mps 761 mmHg 92%

    Day after tomorrow, 13 December, Thursday

    Time Temperature Precipitation Wind Pressure Humidity
    00:00 -1°C° 0 mm 2 mps 761 mmHg 93%
    01:00 -2°C° 0 mm 2 mps 761 mmHg 93%
    02:00 -1°C° 0 mm 2 mps 761 mmHg 93%
    03:00 -1°C° 0 mm 2 mps 761 mmHg 92%
    04:00 -1°C° 0 mm 3 mps 761 mmHg 92%
    05:00 -1°C° 0 mm 3 mps 761 mmHg 91%
    06:00 -1°C° 0 mm 3 mps 761 mmHg 90%
    07:00 -1°C° 0 mm 3 mps 761 mmHg 90%
    08:00 -1°C° 0 mm 3 mps 761 mmHg 88%
    09:00 -1°C° 0 mm 3 mps 761 mmHg 87%
    10:00 -1°C° 0 mm 3 mps 761 mmHg 85%
    11:00 +1°C° 0 mm 2 mps 761 mmHg 84%
    12:00 +1°C° 0 mm 2 mps 761 mmHg 83%
    13:00 +1°C° 0 mm 2 mps 761 mmHg 81%
    14:00 +1°C° 0 mm 2 mps 761 mmHg 84%
    15:00 -1°C° 0 mm 2 mps 761 mmHg 86%
    16:00 -1°C° 0 mm 2 mps 761 mmHg 88%
    17:00 -1°C° 0 mm 2 mps 761 mmHg 88%
    18:00 -1°C° 0 mm 2 mps 761 mmHg 89%
    19:00 -1°C° 0 mm 2 mps 761 mmHg 90%
    20:00 -2°C° 0 mm 2 mps 761 mmHg 90%
    21:00 -2°C° 0 mm 2 mps 761 mmHg 90%
    22:00 -2°C° 0 mm 2 mps 761 mmHg 90%
    23:00 -2°C° 0 mm 2 mps 762 mmHg 90%

    14 December, Friday

    Time Temperature Precipitation Wind Pressure Humidity
    00:00 -2°C° 0 mm 2 mps 762 mmHg 89%
    01:00 -2°C° 0 mm 2 mps 762 mmHg 89%
    02:00 -2°C° 0 mm 2 mps 762 mmHg 89%
    03:00 -2°C° 0 mm 2 mps 762 mmHg 89%
    04:00 -2°C° 0 mm 2 mps 762 mmHg 88%
    05:00 -2°C° 0 mm 2 mps 762 mmHg 88%
    06:00 -2°C° 0 mm 2 mps 762 mmHg 88%
    07:00 -2°C° 0 mm 2 mps 762 mmHg 88%
    08:00 -2°C° 0 mm 2 mps 762 mmHg 85%
    09:00 -2°C° 0 mm 2 mps 762 mmHg 83%
    10:00 -1°C° 0 mm 2 mps 763 mmHg 81%
    11:00 -1°C° 0 mm 2 mps 763 mmHg 79%
    12:00 -1°C° 0 mm 2 mps 763 mmHg 77%
    13:00 -1°C° 0 mm 2 mps 763 mmHg 75%
    14:00 -1°C° 0 mm 2 mps 763 mmHg 77%
    15:00 -2°C° 0 mm 2 mps 763 mmHg 80%
    16:00 -2°C° 0 mm 2 mps 763 mmHg 82%
    17:00 -2°C° 0 mm 2 mps 763 mmHg 84%
    18:00 -2°C° 0 mm 2 mps 763 mmHg 85%
    19:00 -3°C° 0 mm 2 mps 764 mmHg 86%
    20:00 -3°C° 0 mm 2 mps 764 mmHg 87%
    21:00 -3°C° 0 mm 2 mps 764 mmHg 87%
    22:00 -3°C° 0 mm 2 mps 764 mmHg 88%
    23:00 -3°C° 0 mm 2 mps 764 mmHg 89%

    15 December, Saturday

    Time Temperature Precipitation Wind Pressure Humidity
    00:00 -3°C° 0 mm 2 mps 764 mmHg 90%
    01:00 -3°C° 0 mm 2 mps 764 mmHg 91%
    02:00 -3°C° 0 mm 2 mps 764 mmHg 91%
    03:00 -3°C° 0 mm 2 mps 764 mmHg 92%
    04:00 -3°C° 0 mm 2 mps 764 mmHg 93%
    05:00 -2°C° 0 mm 2 mps 765 mmHg 93%
    06:00 -2°C° 0 mm 2 mps 765 mmHg 92%
    07:00 -2°C° 0 mm 2 mps 765 mmHg 92%
    08:00 -2°C° 0 mm 2 mps 765 mmHg 91%
    09:00 -1°C° 0 mm 2 mps 766 mmHg 90%
    10:00 -1°C° 0 mm 2 mps 766 mmHg 89%
    11:00 -1°C° 0 mm 2 mps 766 mmHg 88%
    12:00 -1°C° 0 mm 2 mps 766 mmHg 86%
    13:00 +1°C° 0 mm 2 mps 766 mmHg 84%
    14:00 -1°C° 0 mm 2 mps 766 mmHg 87%
    15:00 -1°C° 0 mm 2 mps 766 mmHg 89%
    16:00 -2°C° 0 mm 2 mps 767 mmHg 91%
    17:00 -2°C° 0 mm 2 mps 767 mmHg 92%
    18:00 -2°C° 0 mm 2 mps 767 mmHg 92%
    19:00 -2°C° 0 mm 2 mps 767 mmHg 92%
    20:00 -2°C° 0 mm 2 mps 767 mmHg 91%
    21:00 -2°C° 0 mm 2 mps 767 mmHg 90%
    22:00 -2°C° 0 mm 2 mps 767 mmHg 90%
    23:00 -2°C° 0 mm 2 mps 767 mmHg 89%

    16 December, Sunday

    Time Temperature Precipitation Wind Pressure Humidity
    00:00 -3°C° 0 mm 2 mps 767 mmHg 88%
    01:00 -3°C° 0 mm 2 mps 767 mmHg 88%
    02:00 -3°C° 0 mm 2 mps 767 mmHg 87%
    03:00 -4°C° 0 mm 3 mps 766 mmHg 86%
    04:00 -4°C° 0 mm 3 mps 766 mmHg 86%
    05:00 -4°C° 0 mm 3 mps 766 mmHg 85%
    06:00 -4°C° 0 mm 3 mps 766 mmHg 85%
    07:00 -4°C° 0 mm 3 mps 766 mmHg 84%
    08:00 -4°C° 0 mm 4 mps 766 mmHg 82%
    09:00 -3°C° 0 mm 4 mps 765 mmHg 80%
    10:00 -4°C° 0 mm 5 mps 765 mmHg 78%
    11:00 -4°C° 0 mm 5 mps 765 mmHg 77%
    12:00 -2°C° 0 mm 5 mps 764 mmHg 75%
    13:00 -2°C° 0 mm 5 mps 764 mmHg 74%
    14:00 -2°C° 0 mm 5 mps 763 mmHg 76%
    15:00 -4°C° 0 mm 5 mps 763 mmHg 78%
    16:00 -4°C° 0 mm 5 mps 763 mmHg 79%
    17:00 -4°C° 0 mm 5 mps 762 mmHg 79%
    18:00 -4°C° 0 mm 5 mps 762 mmHg 78%
    19:00 -4°C° 0 mm 5 mps 762 mmHg 78%
    20:00 -4°C° 0 mm 5 mps 761 mmHg 78%
    21:00 -4°C° 0 mm 5 mps 761 mmHg 78%
    22:00 -4°C° 0 mm 5 mps 761 mmHg 79%
    23:00 -4°C° 0 mm 5 mps 760 mmHg 79%
    Show more